Temperature
17 17 18 18 15 13 15 15 16 17 17 19 19 18 17 16 17 17 16 16 16 16 16 16 16 16 16 16 16 16 16 16 16 16 16 16 16 16 15 15 15 15 15 15 15 15 15 15 15
17 17 17 17 13 14 15 15 16 17 18 19 18 18 16 15 16 16 15 15 16 16 16 16 16 16 16 16 16 16 16 16 16 16 16 16 15 15 15 15 15 15 15 15 15 15 14 14 14
16 17 17 13 13 14 15 15 16 17 18 18 17 17 16 15 15 15 16 15 16 16 16 16 16 16 16 16 16 16 15 15 15 15 15 15 15 15 15 15 15 15 15 15 14 14 14 14 14
16 16 15 12 14 14 15 15 15 16 18 18 17 15 15 15 15 15 15 15 15 15 16 16 15 15 15 15 15 15 15 15 15 15 15 15 15 15 15 15 15 15 15 15 14 14 14 14 14
16 15 13 12 13 14 14 15 16 16 16 16 16 14 14 15 15 15 15 15 15 15 15 15 15 15 15 15 15 15 15 15 15 15 15 15 15 15 15 15 15 15 14 14 14 14 14 14 14
15 12 11 12 13 14 14 15 15 14 15 15 15 13 13 14 14 15 15 15 15 15 15 15 15 15 15 15 15 15 15 15 15 15 15 15 14 14 14 15 15 15 14 14 14 14 14 14 14
13 10 11 12 13 13 14 15 14 13 14 15 15 13 13 13 14 14 14 14 15 15 15 15 15 15 15 15 15 15 15 15 15 15 14 14 14 14 14 14 14 14 14 14 14 14 14 14 13
14 10 12 11 12 13 13 14 14 14 14 15 15 13 13 13 13 14 14 14 14 14 14 14 14 14 15 15 15 14 14 14 14 14 14 14 14 14 14 14 14 14 14 14 14 14 13 13 13
13 10 11 11 12 12 13 13 13 13 14 14 14 14 14 13 13 13 13 13 14 14 14 14 14 14 14 14 14 14 14 14 14 14 14 14 14 14 14 14 14 14 14 14 14 13 13 13 13
12 9 10 11 11 11 12 12 12 13 12 12 13 13 13 13 13 13 13 13 13 13 13 14 14 14 14 14 14 14 14 14 14 14 14 14 13 13 13 13 13 13 13 13 13 13 13 13 13
10 9 10 11 11 12 11 12 12 12 11 12 12 13 13 12 12 12 13 13 13 13 13 13 13 13 14 14 14 14 14 14 14 13 13 13 13 13 13 13 13 13 13 13 13 13 13 13 12
9 9 10 11 11 11 11 11 11 11 12 12 12 12 12 12 12 12 12 12 12 12 13 13 13 13 13 13 13 13 13 13 13 13 13 13 13 13 13 13 13 13 13 13 13 13 12 12 12
9 9 10 10 11 11 11 10 10 11 12 12 12 12 12 12 12 12 12 12 12 12 12 12 12 12 13 13 13 13 13 13 13 13 13 13 13 13 13 13 13 13 13 12 12 12 12 12 12
9 9 9 10 10 10 10 10 10 10 11 11 11 11 11 11 11 11 11 11 11 11 12 12 12 12 12 12 12 12 12 13 13 12 12 12 12 12 12 12 12 12 12 12 12 12 12 12 11
9 8 8 9 9 9 10 9 8 11 11 11 11 11 11 11 11 11 11 11 11 11 11 11 12 12 12 12 12 12 12 12 12 12 12 12 12 12 12 12 12 12 12 12 12 12 11 11 11
8 7 7 8 9 9 9 8 9 11 10 10 10 10 10 10 11 11 11 11 11 11 11 11 11 11 11 11 12 12 12 12 12 12 12 12 12 12 12 12 12 12 11 11 11 11 11 11 11
6 6 7 8 8 8 8 7 8 10 9 9 10 10 10 10 10 10 10 10 10 10 10 10 11 11 11 11 11 11 11 11 11 11 11 11 11 11 11 11 11 11 11 11 11 11 11 10 10
6 6 7 7 7 7 7 6 7 9 9 9 9 9 9 9 10 10 10 10 10 10 10 10 10 10 10 11 11 11 11 11 11 11 11 11 11 11 11 11 11 11 11 11 10 10 10 10 10
6 6 6 7 7 7 6 6 7 8 8 8 8 8 9 9 9 9 9 9 9 9 9 9 10 10 10 10 10 10 10 10 10 10 11 10 10 10 10 10 10 10 10 10 10 10 10 10 10
6 6 6 6 7 7 6 6 6 7 7 8 8 8 8 8 9 9 9 9 9 9 9 9 9 9 9 9 10 10 10 10 10 10 10 10 10 10 10 10 10 10 10 10 10 9 9 9 9
6 6 6 6 6 6 6 6 6 7 7 8 8 8 8 8 8 8 8 8 8 8 9 9 9 9 9 9 9 9 9 9 9 9 9 9 9 9 9 9 9 9 9 9 9 9 9 9 9
6 6 6 6 5 4 5 5 6 6 6 6 7 7 8 8 8 8 8 8 8 8 8 8 9 9 8 8 8 9 9 9 9 9 9 9 9 9 9 9 9 9 9 9 9 9 8 8 8
5 6 6 5 5 4 5 4 5 5 6 6 6 7 7 7 7 7 7 7 7 8 8 8 8 8 8 8 8 8 8 8 8 8 8 8 8 8 8 8 8 8 8 8 8 8 8 8 8
5 5 4 4 3 4 4 4 5 5 6 6 6 7 7 7 7 7 7 7 7 7 7 7 8 8 8 8 8 8 8 7 8 8 8 8 8 8 8 8 8 8 8 8 8 8 8 8 8
5 4 4 4 3 4 4 4 5 5 6 6 6 6 7 7 7 7 7 7 7 7 7 7 7 7 7 7 7 7 7 7 7 7 7 7 7 7 7 7 8 8 8 7 7 7 8 8 8
4 4 4 5 4 3 4 4 5 5 6 6 6 6 6 6 6 6 6 6 6 6 6 6 6 6 7 7 7 7 7 7 6 7 7 7 7 7 7 7 7 7 7 7 7 7 7 7 7
4 4 4 3 2 3 3 3 4 5 5 5 5 5 6 6 6 6 6 6 6 6 6 6 6 6 6 6 6 6 6 6 6 6 6 6 6 6 7 7 7 7 7 7 7 6 6 6 7
4 3 2 3 3 4 4 3 4 5 5 5 4 4 5 5 5 5 5 5 5 5 5 5 6 6 6 6 6 6 6 6 6 6 6 6 6 6 6 7 7 6 6 6 6 6 6 6 6
4 3 2 2 2 3 3 4 5 4 4 4 4 5 5 5 5 5 5 5 5 5 5 5 5 5 5 5 5 6 5 5 5 5 6 6 6 6 6 6 6 6 6 6 6 6 5 5 5
3 3 2 3 2 1 1 4 5 4 4 4 4 5 5 5 5 5 5 4 5 5 5 5 5 5 5 5 5 5 5 5 5 5 5 5 5 5 5 6 6 6 6 6 6 5 5 5 5
Wind_Speed
14 11 2 4 5 4 2 4 2 1 1 1 1 5 6 4 2 4 1 3 5 5 6 8 9 10 10 11 11 11 11 11 10 11 10 10 11 11 10 10 10 10 10 10 10 10 10 10 11
9 4 4 5 4 2 4 4 3 3 3 1 2 4 5 3 2 5 2 3 6 6 7 8 9 10 10 10 10 10 11 10 10 10 10 10 10 10 10 10 9 10 10 9 9 9 9 9 9
5 2 4 4 4 6 5 3 5 3 2 1 3 4 4 2 2 3 3 6 6 6 7 8 9 10 10 10 10 10 10 10 10 9 9 9 9 9 9 9 9 9 9 9 8 8 8 8 7
3 4 5 3 4 5 4 3 3 2 2 3 3 4 2 1 1 3 6 7 7 5 6 9 10 10 10 10 10 10 9 9 9 9 9 9 9 9 9 9 9 8 8 8 7 7 7 6 6
4 4 3 1 5 3 3 3 1 1 1 3 3 3 2 4 3 6 6 6 7 4 5 8 10 10 10 10 10 9 9 9 8 8 9 9 9 9 9 9 8 8 8 7 7 6 6 6 6
4 4 3 5 5 2 2 2 1 2 1 2 3 3 1 1 4 4 4 4 5 5 5 6 8 9 9 9 9 9 8 8 8 8 8 8 9 9 9 9 8 8 7 7 6 6 5 5 5
4 4 5 4 3 3 2 2 1 0 1 2 1 3 1 1 1 3 4 4 4 5 5 4 6 7 8 8 8 8 8 7 8 8 7 8 8 9 9 9 8 8 7 6 6 5 5 4 4
4 4 3 3 4 4 2 1 1 0 1 2 2 4 3 4 2 3 4 4 4 3 4 3 4 5 6 6 7 6 6 6 7 7 7 7 8 8 8 8 8 7 7 6 5 5 4 3 4
4 3 4 4 4 3 2 2 3 2 2 3 1 2 2 2 2 5 4 3 2 3 2 3 3 4 5 5 5 5 5 5 5 6 6 6 6 6 6 7 8 7 6 6 5 4 3 2 3
4 4 6 2 2 2 2 1 2 3 3 2 3 3 2 2 4 4 4 3 2 2 1 2 2 3 4 4 4 4 4 3 4 4 5 5 6 6 5 7 7 7 6 6 5 4 2 2 2
3 4 3 2 1 1 1 3 2 1 2 3 3 3 0 1 1 2 2 3 3 2 1 1 2 2 3 2 3 3 3 3 3 4 5 5 5 5 4 5 5 5 6 4 3 2 1 1 1
2 1 2 2 2 1 2 2 2 3 6 4 3 3 2 2 2 3 3 2 2 1 1 1 1 1 2 2 2 3 2 2 2 3 4 4 3 3 3 3 3 4 3 3 2 1 1 1 1
1 2 2 2 3 2 2 3 3 6 7 4 2 2 3 4 4 3 3 2 2 2 1 1 1 1 1 2 1 2 2 2 3 3 4 4 3 3 3 3 3 3 3 3 2 2 2 1 1
2 1 3 3 3 2 3 5 3 7 3 2 2 3 4 5 4 2 2 2 2 2 2 1 1 1 1 2 2 1 1 2 2 2 3 5 4 3 3 3 3 3 4 4 4 3 2 2 1
0 1 4 3 2 1 1 6 7 7 3 3 4 5 5 5 4 4 4 3 3 3 2 2 2 2 2 2 2 2 1 2 2 2 3 4 4 4 4 3 3 4 4 4 3 3 2 1 1
2 1 2 3 1 1 1 8 7 4 2 5 6 6 6 5 5 5 4 3 3 2 2 3 1 1 2 2 2 2 2 2 2 3 3 4 5 4 4 3 4 5 4 3 3 2 2 2 2
2 1 3 4 1 0 2 8 7 4 3 6 6 6 5 5 4 4 4 4 3 3 2 2 1 2 2 3 2 2 2 2 3 3 3 4 5 5 4 3 3 4 3 3 3 3 3 3 2
3 3 4 5 3 2 5 10 10 6 5 6 5 5 5 5 6 4 3 3 3 3 2 2 2 2 2 1 1 2 2 2 2 3 4 4 4 5 4 2 3 3 3 3 3 3 3 3 3
4 3 5 5 3 3 7 11 12 7 6 6 5 5 5 5 5 4 3 2 2 1 1 2 2 2 2 2 2 2 3 3 3 3 4 5 5 5 4 3 3 3 3 4 4 3 3 2 1
2 3 4 5 2 3 6 11 10 7 6 6 6 6 5 4 4 3 2 2 2 2 2 3 3 3 3 3 3 3 3 3 4 3 4 5 5 5 5 4 4 4 3 4 3 3 3 2 2
3 4 4 4 5 3 4 8 6 4 4 4 5 5 4 4 4 4 3 2 2 2 3 3 4 4 4 4 3 1 1 1 2 3 4 4 5 5 5 4 4 4 4 4 5 5 4 4 3
4 4 4 3 2 4 0 5 6 4 4 4 5 4 4 4 4 4 3 3 3 4 4 4 4 4 5 4 3 4 4 4 5 4 4 4 4 5 5 5 5 4 4 4 5 5 4 5 4
4 2 2 2 2 3 2 3 8 3 5 5 5 4 4 4 4 4 4 4 4 4 4 4 4 5 5 4 4 5 4 4 3 3 3 4 4 4 4 4 4 5 4 5 5 4 4 4 5
1 2 3 2 2 4 5 5 7 5 6 4 4 4 4 3 3 4 3 3 3 3 3 3 4 5 5 5 5 5 6 5 4 4 4 4 4 4 4 4 4 5 5 5 5 5 5 5 5
2 3 3 3 2 6 3 4 9 7 5 5 4 4 4 3 3 3 3 3 3 3 3 3 4 6 5 5 5 6 6 6 6 6 6 5 4 4 6 5 5 5 5 5 4 5 5 5 5
4 5 5 4 5 5 2 6 8 5 3 2 2 2 2 2 3 3 3 4 4 4 4 4 5 6 6 5 6 5 6 5 5 6 5 6 6 6 6 6 5 6 5 5 4 4 5 4 5
4 4 4 3 1 3 6 6 7 3 2 2 2 3 3 3 3 4 4 4 4 4 5 5 6 6 6 6 5 5 5 5 5 5 5 5 5 5 6 6 6 5 5 5 5 4 5 4 5
3 4 4 3 3 5 6 6 5 5 4 3 2 3 4 5 4 4 4 4 5 5 5 5 5 6 6 5 5 5 5 5 5 5 6 6 5 5 5 6 6 6 5 5 5 4 4 5 5
3 3 3 3 4 4 5 7 5 6 4 3 4 5 5 6 6 5 5 5 6 6 5 5 5 5 5 5 5 5 5 5 5 5 6 6 5 5 5 6 6 6 6 6 6 5 5 6 5
3 5 6 4 5 4 4 9 4 3 3 3 5 6 6 6 6 6 6 6 6 6 5 5 5 5 5 5 5 5 5 5 5 5 6 5 5 5 5 5 5 6 6 6 7 7 6 7 7
Wind_Direction
334 332 29 55 59 59 227 256 253 321 316 273 65 94 106 100 123 162 166 129 119 133 138 139 139 137 138 136 133 129 126 125 123 123 122 118 114 112 110 107 104 101 99 99 97 103 102 99 97
333 345 52 62 101 171 251 248 230 240 226 222 60 78 79 74 74 109 112 129 122 127 132 133 134 136 137 137 136 132 130 127 126 126 128 126 121 117 115 112 109 105 102 100 100 102 108 105 102
332 42 80 84 141 192 216 234 220 243 293 29 49 53 92 110 104 132 149 134 114 118 127 130 130 132 136 138 136 133 131 131 130 131 134 133 127 123 121 117 112 109 107 103 102 101 109 109 106
40 50 61 96 208 221 203 227 226 238 347 28 87 55 59 23 157 148 128 116 108 108 124 132 133 131 134 139 138 135 136 137 137 138 141 137 131 127 124 120 115 114 111 108 106 107 106 111 107
58 81 89 204 232 236 228 257 263 20 346 10 74 97 51 341 61 107 119 119 116 103 112 134 135 132 130 135 142 140 138 140 143 142 143 142 138 135 131 126 123 121 116 114 115 113 107 106 106
61 80 131 214 232 249 276 296 355 34 356 6 60 109 153 340 77 102 114 113 122 123 112 130 135 137 133 133 138 143 144 145 146 147 146 147 144 142 138 135 131 127 123 121 122 120 114 106 94
112 122 177 197 215 242 277 329 98 40 24 311 98 118 174 294 92 112 113 112 109 117 113 113 129 137 139 136 135 141 147 149 151 151 151 148 145 147 143 138 136 132 129 129 129 125 125 112 96
124 121 174 201 200 226 300 354 53 75 267 309 102 138 197 244 267 95 98 108 110 112 120 118 124 131 136 140 139 135 138 148 152 152 149 147 147 150 149 145 143 139 136 135 136 134 127 117 101
93 106 200 206 193 219 316 19 344 342 39 357 24 168 229 196 108 89 84 83 104 116 122 125 131 136 138 139 140 133 134 144 154 154 148 142 142 145 151 151 150 147 143 142 143 143 135 117 92
92 169 211 220 193 195 335 5 326 12 3 344 348 347 23 89 114 117 128 139 158 170 167 148 142 155 153 146 138 133 137 131 138 148 145 140 140 145 150 152 155 154 151 153 159 163 158 120 83
123 179 198 256 274 290 325 326 332 111 265 233 256 282 148 104 134 162 169 174 190 188 181 203 162 156 158 139 137 127 123 119 118 134 144 142 137 138 142 145 151 154 156 154 169 169 160 138 134
121 244 201 243 303 296 262 280 309 233 236 243 226 217 186 201 219 206 210 190 185 172 192 239 192 145 159 144 139 137 128 130 132 149 144 140 143 145 152 156 159 161 164 160 164 188 211 199 182
200 267 283 292 316 287 280 262 259 260 260 273 259 225 211 221 238 228 223 202 172 169 179 222 210 152 152 138 138 145 150 155 166 164 164 150 154 173 177 183 179 180 176 177 185 203 206 205 202
190 244 283 286 287 294 269 276 254 260 260 275 266 242 237 232 232 232 221 211 197 197 211 208 194 186 145 156 165 170 182 172 172 178 187 175 163 177 184 191 194 196 195 196 193 200 196 205 196
102 342 318 282 251 275 346 290 241 247 253 259 256 254 263 259 239 219 211 210 206 209 218 215 202 194 184 200 188 174 184 176 185 200 200 189 178 182 185 189 207 207 199 194 190 194 177 193 221
60 56 296 282 198 230 147 261 261 254 232 257 259 259 260 262 239 231 223 210 206 204 222 231 231 208 210 214 205 193 188 192 204 205 203 201 185 189 188 190 208 210 196 191 195 194 191 212 223
55 221 249 283 241 150 202 259 271 267 251 261 263 264 259 272 261 249 230 205 201 199 204 220 222 223 229 218 209 213 204 213 218 208 211 211 196 191 193 196 209 209 197 197 206 206 196 208 222
213 229 245 246 259 233 245 259 275 274 253 254 260 263 261 261 261 252 233 217 210 206 202 214 222 235 239 248 219 225 228 230 238 222 218 213 209 196 198 199 210 209 202 201 204 209 214 209 209
189 206 251 253 264 255 250 266 274 270 256 255 254 254 259 257 262 262 236 225 218 214 209 233 237 253 234 243 232 228 236 229 229 236 223 210 216 210 205 209 206 209 211 209 202 208 210 227 186
212 240 268 287 293 266 268 275 272 256 239 235 236 245 253 263 282 286 270 244 234 231 232 237 236 245 242 235 237 225 229 231 231 246 236 217 216 217 217 206 204 207 214 206 202 204 206 223 192
243 217 242 266 324 326 312 298 276 264 254 257 243 233 237 241 257 270 271 262 240 241 244 258 250 249 250 243 232 252 236 253 240 239 229 229 224 222 219 218 217 213 211 213 209 197 203 213 224
250 227 230 263 330 293 315 289 279 271 285 265 261 245 240 248 255 259 263 271 255 248 242 247 255 257 254 242 222 227 229 241 242 228 227 228 229 226 222 219 221 216 219 224 217 209 213 200 215
222 243 229 241 220 289 252 236 279 283 268 266 262 246 237 242 252 260 258 256 251 248 246 250 257 261 257 243 229 228 236 240 251 236 223 226 230 232 223 214 214 216 222 229 223 216 214 212 213
212 14 29 42 82 272 232 205 275 248 241 257 264 247 242 247 257 263 267 273 274 269 266 262 262 265 255 243 237 231 234 239 240 241 230 232 234 230 224 221 216 219 221 227 225 215 213 220 223
85 91 24 351 330 254 232 210 251 254 243 233 245 254 254 245 244 261 277 286 295 294 284 279 272 270 259 246 242 236 234 230 229 232 232 232 235 236 226 223 218 223 224 230 224 220 219 219 218
201 161 167 212 239 280 280 234 252 256 256 242 235 260 274 277 268 269 264 262 269 275 279 279 278 268 260 250 250 246 238 233 237 237 236 232 233 232 223 218 221 227 224 227 221 225 227 225 227
160 195 181 156 236 277 269 276 291 271 303 325 340 344 321 303 295 291 285 279 277 276 272 268 271 270 262 253 251 250 242 239 243 244 239 242 244 238 223 218 216 219 216 213 215 226 226 224 230
168 151 119 153 204 260 280 267 248 261 277 299 311 310 309 309 307 303 298 291 283 275 272 268 266 258 252 248 245 249 247 247 248 244 243 245 245 238 227 221 218 217 216 212 211 224 226 227 235
170 168 156 160 185 199 261 268 230 223 232 245 263 275 285 296 300 299 296 292 288 285 279 276 272 265 261 254 248 249 253 254 255 247 246 245 243 238 232 226 218 216 216 213 211 219 220 228 238
203 194 169 187 233 208 223 268 261 212 243 256 275 286 289 290 297 295 293 293 295 293 288 281 270 260 257 253 250 250 255 258 256 250 251 244 238 234 231 229 221 220 219 216 213 218 222 226 230
Height
1515 1515 1516 1518 1522 1533 1534 1528 1521 1518 1517 1515 1514 1514 1516 1519 1522 1528 1524 1522 1523 1524 1526 1527 1529 1530 1530 1531 1532 1533 1534 1534 1535 1536 1536 1536 1537 1537 1537 1537 1538 1538 1538 1538 1538 1538 1538 1538 1538
1514 1515 1518 1518 1528 1538 1534 1525 1521 1517 1515 1514 1514 1515 1516 1519 1520 1521 1521 1523 1524 1525 1526 1527 1528 1529 1530 1531 1532 1533 1533 1534 1535 1535 1536 1536 1537 1537 1537 1538 1538 1538 1538 1538 1538 1538 1538 1538 1538
1514 1515 1518 1521 1530 1533 1528 1521 1518 1515 1515 1514 1515 1516 1518 1520 1521 1521 1521 1523 1524 1525 1526 1527 1528 1529 1530 1531 1532 1532 1533 1534 1534 1535 1536 1536 1537 1537 1537 1538 1538 1538 1538 1538 1538 1538 1539 1539 1539
1514 1516 1518 1526 1527 1524 1521 1518 1516 1515 1514 1515 1516 1518 1520 1522 1521 1521 1522 1523 1524 1525 1525 1526 1527 1528 1529 1530 1531 1532 1533 1533 1534 1534 1535 1536 1536 1537 1537 1537 1537 1538 1538 1538 1538 1538 1538 1539 1539
1514 1515 1522 1528 1525 1521 1518 1517 1516 1516 1515 1516 1516 1518 1520 1522 1521 1521 1522 1522 1523 1524 1525 1526 1527 1528 1529 1530 1530 1531 1532 1533 1533 1534 1534 1535 1536 1536 1536 1537 1537 1537 1537 1538 1538 1538 1538 1538 1539
1514 1516 1528 1530 1524 1520 1518 1516 1516 1516 1516 1516 1517 1518 1520 1521 1521 1521 1522 1522 1523 1524 1525 1526 1527 1527 1528 1529 1530 1530 1531 1532 1532 1533 1534 1534 1535 1535 1536 1536 1536 1537 1537 1537 1537 1537 1537 1538 1538
1515 1519 1525 1525 1524 1521 1518 1517 1517 1517 1517 1517 1517 1518 1520 1520 1520 1521 1521 1522 1522 1523 1524 1525 1526 1527 1528 1528 1529 1530 1530 1531 1531 1532 1533 1533 1534 1535 1535 1535 1535 1536 1536 1536 1536 1537 1537 1537 1538
1513 1519 1522 1524 1522 1521 1518 1517 1517 1517 1517 1517 1517 1518 1518 1519 1519 1519 1520 1521 1521 1522 1523 1524 1525 1525 1526 1527 1528 1528 1529 1530 1530 1531 1532 1532 1533 1533 1534 1534 1535 1535 1535 1535 1536 1536 1536 1537 1537
1513 1522 1524 1522 1520 1519 1517 1517 1517 1517 1517 1516 1516 1517 1517 1518 1517 1518 1518 1519 1520 1520 1521 1522 1523 1524 1525 1525 1526 1527 1528 1528 1529 1530 1530 1531 1531 1532 1533 1533 1533 1534 1534 1534 1535 1535 1535 1536 1536
1513 1522 1520 1518 1517 1517 1517 1517 1517 1516 1516 1516 1515 1515 1516 1516 1516 1516 1516 1516 1517 1518 1519 1520 1521 1522 1523 1524 1524 1525 1526 1526 1527 1528 1528 1529 1530 1530 1531 1532 1532 1533 1533 1533 1533 1534 1534 1535 1535
1514 1518 1517 1516 1516 1516 1516 1516 1516 1516 1516 1515 1514 1514 1514 1515 1515 1515 1514 1515 1515 1516 1517 1518 1519 1520 1521 1521 1522 1523 1523 1524 1525 1525 1526 1527 1528 1528 1529 1530 1530 1531 1531 1532 1532 1532 1532 1533 1533
1515 1516 1516 1515 1515 1515 1515 1515 1515 1514 1513 1513 1513 1512 1512 1512 1513 1513 1512 1513 1513 1514 1515 1516 1517 1518 1518 1519 1520 1520 1521 1521 1522 1523 1524 1524 1525 1526 1527 1528 1528 1529 1529 1529 1530 1530 1530 1531 1531
1515 1516 1515 1515 1515 1515 1514 1514 1514 1512 1511 1511 1511 1510 1510 1510 1510 1511 1511 1511 1511 1511 1512 1514 1514 1515 1515 1516 1517 1518 1518 1519 1520 1520 1521 1522 1522 1523 1524 1525 1526 1526 1527 1527 1528 1528 1528 1528 1529
1515 1515 1515 1514 1514 1514 1514 1512 1513 1508 1509 1509 1509 1508 1508 1508 1508 1508 1508 1508 1509 1509 1510 1511 1512 1512 1513 1513 1514 1515 1516 1516 1517 1518 1518 1519 1519 1520 1521 1522 1523 1524 1524 1525 1525 1526 1526 1526 1526
1515 1516 1515 1514 1513 1513 1514 1513 1509 1507 1508 1508 1507 1507 1506 1506 1505 1505 1505 1505 1506 1507 1508 1509 1509 1509 1510 1510 1511 1512 1513 1514 1514 1515 1515 1516 1516 1517 1518 1519 1520 1521 1522 1522 1523 1523 1523 1524 1524
1515 1519 1520 1514 1513 1513 1517 1514 1507 1506 1506 1505 1505 1505 1504 1503 1503 1502 1503 1503 1504 1504 1505 1505 1506 1506 1507 1507 1508 1509 1509 1510 1511 1511 1512 1513 1513 1514 1515 1516 1517 1518 1519 1519 1520 1520 1520 1520 1521
1520 1523 1520 1516 1513 1513 1515 1512 1505 1505 1504 1503 1503 1502 1502 1500 1500 1500 1500 1500 1501 1502 1502 1503 1502 1503 1503 1503 1504 1505 1506 1506 1507 1508 1508 1509 1510 1511 1511 1512 1513 1514 1515 1516 1516 1517 1517 1517 1517
1521 1521 1519 1518 1513 1513 1514 1510 1504 1503 1502 1501 1500 1499 1499 1498 1497 1498 1497 1498 1498 1499 1499 1499 1499 1499 1500 1500 1500 1501 1502 1502 1503 1503 1504 1505 1506 1506 1507 1508 1509 1510 1511 1512 1512 1513 1514 1514 1514
1517 1519 1519 1515 1511 1512 1511 1507 1502 1500 1499 1498 1497 1496 1496 1495 1495 1495 1495 1494 1495 1495 1495 1495 1495 1495 1496 1496 1495 1495 1496 1497 1498 1499 1500 1501 1502 1502 1503 1504 1505 1506 1506 1507 1508 1509 1510 1510 1511
1516 1519 1519 1515 1511 1511 1510 1505 1499 1496 1495 1494 1493 1493 1493 1492 1492 1492 1491 1491 1491 1491 1491 1492 1492 1492 1492 1492 1491 1491 1492 1492 1493 1495 1495 1496 1497 1498 1499 1499 1500 1501 1502 1503 1503 1504 1505 1506 1507
1515 1518 1517 1516 1513 1510 1511 1505 1498 1493 1492 1491 1491 1490 1490 1490 1489 1489 1488 1488 1488 1488 1487 1488 1488 1488 1488 1488 1487 1487 1488 1488 1489 1489 1490 1491 1492 1493 1494 1495 1496 1497 1497 1497 1498 1499 1500 1501 1502
1515 1513 1514 1514 1518 1519 1515 1516 1499 1494 1492 1489 1487 1487 1487 1487 1486 1486 1485 1485 1485 1485 1485 1485 1484 1484 1484 1483 1482 1482 1482 1482 1482 1483 1484 1485 1487 1488 1489 1489 1491 1492 1492 1493 1493 1494 1495 1497 1497
1513 1512 1513 1514 1517 1520 1516 1518 1502 1495 1491 1487 1485 1484 1484 1484 1484 1483 1482 1482 1482 1482 1481 1480 1480 1480 1479 1478 1478 1478 1478 1478 1478 1479 1479 1480 1481 1482 1483 1484 1485 1486 1487 1487 1488 1489 1490 1491 1492
1511 1513 1515 1518 1521 1522 1514 1516 1503 1494 1487 1485 1483 1482 1481 1481 1481 1480 1480 1479 1478 1478 1477 1476 1475 1475 1475 1474 1474 1473 1473 1473 1473 1474 1474 1475 1475 1476 1477 1478 1479 1480 1481 1482 1483 1483 1484 1486 1487
1513 1519 1526 1525 1529 1520 1510 1511 1500 1486 1483 1482 1481 1480 1479 1479 1478 1477 1476 1475 1474 1473 1473 1472 1471 1470 1469 1469 1469 1469 1469 1468 1468 1468 1469 1469 1469 1469 1470 1471 1473 1474 1475 1476 1477 1477 1479 1480 1481
1513 1515 1523 1525 1525 1519 1510 1507 1492 1482 1481 1480 1479 1478 1477 1476 1475 1474 1473 1472 1471 1470 1469 1468 1466 1465 1464 1464 1464 1464 1465 1464 1464 1464 1464 1464 1464 1464 1464 1466 1467 1468 1469 1470 1471 1472 1473 1474 1475
1511 1514 1514 1523 1525 1524 1511 1502 1489 1480 1479 1478 1478 1477 1475 1474 1473 1471 1470 1469 1467 1466 1464 1463 1461 1460 1460 1459 1459 1459 1460 1459 1459 1459 1459 1459 1459 1459 1459 1460 1461 1462 1463 1464 1465 1466 1467 1468 1469
1509 1511 1518 1521 1521 1518 1509 1503 1491 1482 1479 1478 1477 1476 1474 1473 1471 1469 1467 1465 1463 1462 1460 1459 1457 1456 1455 1455 1455 1454 1454 1454 1454 1454 1453 1454 1454 1454 1454 1454 1455 1456 1457 1458 1459 1460 1461 1463 1464
1510 1512 1514 1520 1520 1518 1513 1496 1480 1478 1477 1476 1475 1474 1473 1471 1468 1466 1464 1462 1459 1457 1455 1453 1452 1450 1450 1449 1449 1449 1449 1449 1449 1448 1448 1448 1448 1449 1448 1448 1449 1450 1451 1452 1453 1454 1455 1457 1458
1507 1507 1512 1516 1518 1519 1517 1497 1474 1475 1474 1474 1473 1472 1470 1468 1466 1463 1461 1458 1455 1452 1450 1448 1446 1445 1445 1445 1444 1444 1444 1444 1443 1442 1442 1442 1442 1443 1443 1443 1443 1444 1445 1446 1447 1448 1449 1451 1451